User: anonymous   Login
Location: Unspecified
(0.0000°N, 0.0000°E)
Time: 00:12:48
(UTC+00:00)
Language:

STARLINK-33681 - Orbit

View from above orbital plane
View from above orbital plane
View from above satellite
View from above satellite

Ground track
Ground track

The orbit is defined by the following mean orbital elements,

1 63438U          26145.38966101 +.00000000 +00000-0 +95803-3 0 00007
2 63438  53.1598 143.6737 0000932  71.1725 288.9382 15.42178559    02
Epoch (UTC): 25 May 2026 09:21:06
Eccentricity: 0.0000932
inclination: 53.1598°
perigee height: 439 km
apogee height: 440 km
right ascension of ascending node: 143.6737°
argument of perigee: 71.1725°
revolutions per day: 15.42178559
mean anomaly at epoch: 288.9382°

The dashed part of the orbit path shows where the satellite is in the earth's shadow,  

DLR